AAL5077 KMCO-KBHM

Flight info

Callsign AAL5077
Flight time 1h 23m
Altitude 36000
Route RDSOX1 JFRYS PATOY Q116 DEEDA WANDS
Aircraft A321/M-SDE3FGHIRWY/LB1

Departure

Time 2026-04-19 23:39
Airport Orlando International Airport (KMCO)

Arrival

Time 2026-04-20 01:02
Airport Birmingham-Shuttlesworth International Airport (KBHM)
Time Latitude Longitude Altitude Speed Heading
2026-04-19 23:09 28.42558 -81.31553 102 ft 0 kts 36°
2026-04-19 23:28 28.42554 -81.31556 102 ft 4 kts 38°
2026-04-19 23:29 28.42538 -81.31578 100 ft 4 kts 79°
2026-04-19 23:29 28.42542 -81.31602 101 ft 4 kts 139°
2026-04-19 23:29 28.42564 -81.31616 102 ft 3 kts 166°
2026-04-19 23:29 28.42567 -81.31617 101 ft 0 kts 167°
2026-04-19 23:31 28.42562 -81.31615 102 ft 2 kts 167°
2026-04-19 23:31 28.42546 -81.31611 100 ft 3 kts 167°
2026-04-19 23:32 28.42518 -81.31608 101 ft 5 kts 177°
2026-04-19 23:32 28.42483 -81.31615 102 ft 5 kts 197°
2026-04-19 23:32 28.42451 -81.31632 103 ft 5 kts 206°
2026-04-19 23:32 28.42424 -81.31647 104 ft 4 kts 206°
2026-04-19 23:33 28.42403 -81.31662 105 ft 4 kts 214°
2026-04-19 23:33 28.42379 -81.31682 105 ft 5 kts 219°
2026-04-19 23:33 28.42356 -81.31714 105 ft 6 kts 242°
2026-04-19 23:33 28.42347 -81.31757 106 ft 6 kts 269°
2026-04-19 23:34 28.42347 -81.31802 107 ft 6 kts 264°
2026-04-19 23:34 28.42323 -81.31830 107 ft 5 kts 196°
2026-04-19 23:34 28.42285 -81.31832 108 ft 6 kts 184°
2026-04-19 23:34 28.42239 -81.31839 106 ft 7 kts 192°
2026-04-19 23:35 28.42185 -81.31855 107 ft 9 kts 194°
2026-04-19 23:35 28.42114 -81.31875 106 ft 12 kts 187°
2026-04-19 23:35 28.42017 -81.31879 103 ft 16 kts 179°
2026-04-19 23:35 28.41903 -81.31878 103 ft 17 kts 179°
2026-04-19 23:36 28.41781 -81.31876 103 ft 18 kts 179°
2026-04-19 23:36 28.41646 -81.31875 101 ft 21 kts 179°
2026-04-19 23:36 28.41546 -81.31919 100 ft 14 kts 251°
2026-04-19 23:36 28.41543 -81.32029 100 ft 14 kts 269°
2026-04-19 23:37 28.41543 -81.32140 102 ft 14 kts 270°
2026-04-19 23:37 28.41592 -81.32196 102 ft 3 kts 16°
2026-04-19 23:37 28.41604 -81.32196 102 ft 1 kts 360°
2026-04-19 23:37 28.41614 -81.32196 102 ft 2 kts 360°
2026-04-19 23:38 28.41642 -81.32197 100 ft 7 kts 357°
2026-04-19 23:38 28.41977 -81.32201 106 ft 93 kts 359°
2026-04-19 23:38 28.42885 -81.32224 128 ft 164 kts 354°
2026-04-19 23:38 28.44062 -81.32222 648 ft 174 kts 356°
2026-04-19 23:39 28.45355 -81.32248 904 ft 199 kts 356°
2026-04-19 23:39 28.46820 -81.32270 1234 ft 222 kts 357°
2026-04-19 23:39 28.48425 -81.32286 1693 ft 237 kts 357°
2026-04-19 23:39 28.50081 -81.32297 2451 ft 238 kts 358°
2026-04-19 23:40 28.51733 -81.32358 3231 ft 240 kts 353°
2026-04-19 23:40 28.53406 -81.32548 4020 ft 243 kts 352°
2026-04-19 23:40 28.55067 -81.32927 4760 ft 246 kts 336°
2026-04-19 23:40 28.56634 -81.33734 5497 ft 249 kts 334°
2026-04-19 23:41 28.58141 -81.34717 6244 ft 252 kts 318°
2026-04-19 23:41 28.59250 -81.36265 6793 ft 257 kts 296°
2026-04-19 23:41 28.59754 -81.38275 6946 ft 271 kts 272°
2026-04-19 23:41 28.59739 -81.40438 6986 ft 273 kts 269°
2026-04-19 23:42 28.59701 -81.42575 6989 ft 275 kts 269°
2026-04-19 23:42 28.59669 -81.44753 6992 ft 276 kts 269°
2026-04-19 23:42 28.59643 -81.46929 6993 ft 275 kts 269°
2026-04-19 23:42 28.59543 -81.49106 6993 ft 277 kts 260°
2026-04-19 23:43 28.58991 -81.51198 6998 ft 277 kts 246°
2026-04-19 23:43 28.58187 -81.53188 6999 ft 276 kts 246°
2026-04-19 23:43 28.57389 -81.55175 6999 ft 276 kts 246°
2026-04-19 23:43 28.56589 -81.57170 7013 ft 277 kts 246°
2026-04-19 23:44 28.55787 -81.59168 7065 ft 281 kts 246°
2026-04-19 23:44 28.54980 -81.61183 7823 ft 280 kts 246°
2026-04-19 23:44 28.54175 -81.63199 8687 ft 280 kts 246°
2026-04-19 23:44 28.53366 -81.65222 9478 ft 281 kts 246°
2026-04-19 23:45 28.52552 -81.67255 10205 ft 285 kts 247°
2026-04-19 23:45 28.51697 -81.69389 10404 ft 308 kts 247°
2026-04-19 23:45 28.50778 -81.71682 10574 ft 329 kts 247°
2026-04-19 23:45 28.49814 -81.74082 11084 ft 336 kts 246°
2026-04-19 23:46 28.48838 -81.76506 11772 ft 338 kts 247°
2026-04-19 23:46 28.47856 -81.78943 12462 ft 340 kts 247°
2026-04-19 23:46 28.46868 -81.81387 13190 ft 341 kts 247°
2026-04-19 23:46 28.45874 -81.83839 13901 ft 342 kts 247°
2026-04-19 23:47 28.44875 -81.86306 14516 ft 344 kts 247°
2026-04-19 23:47 28.43873 -81.88785 15136 ft 346 kts 247°
2026-04-19 23:47 28.43019 -81.91337 15738 ft 347 kts 256°
2026-04-19 23:47 28.42642 -81.94006 16335 ft 348 kts 267°
2026-04-19 23:48 28.42660 -81.96761 16925 ft 350 kts 271°
2026-04-19 23:48 28.42713 -81.99583 17487 ft 354 kts 271°
2026-04-19 23:48 28.42761 -82.02397 17908 ft 357 kts 271°
2026-04-19 23:48 28.42805 -82.05222 18016 ft 357 kts 271°
2026-04-19 23:49 28.42848 -82.08039 18034 ft 357 kts 271°
2026-04-19 23:49 28.42888 -82.10859 18033 ft 357 kts 271°
2026-04-19 23:49 28.42931 -82.13673 18033 ft 357 kts 271°
2026-04-19 23:49 28.42975 -82.16451 18033 ft 356 kts 271°
2026-04-19 23:50 28.43019 -82.19264 18036 ft 356 kts 271°
2026-04-19 23:50 28.43062 -82.22081 18034 ft 356 kts 271°
2026-04-19 23:50 28.43103 -82.24901 18029 ft 357 kts 271°
2026-04-19 23:50 28.43146 -82.27715 18029 ft 357 kts 271°
2026-04-19 23:51 28.43188 -82.30532 18027 ft 357 kts 271°
2026-04-19 23:51 28.43228 -82.33350 18028 ft 357 kts 271°
2026-04-19 23:51 28.43266 -82.36164 18028 ft 356 kts 271°
2026-04-19 23:51 28.43304 -82.38981 18028 ft 357 kts 271°
2026-04-19 23:52 28.43350 -82.41799 18024 ft 356 kts 273°
2026-04-19 23:52 28.43561 -82.43639 18028 ft 355 kts 281°
2026-04-19 23:52 28.44390 -82.46287 18052 ft 359 kts 295°
2026-04-19 23:52 28.45839 -82.48636 18562 ft 368 kts 308°
2026-04-19 23:53 28.47795 -82.50540 19134 ft 376 kts 322°
2026-04-19 23:53 28.50052 -82.52087 19691 ft 379 kts 324°
2026-04-19 23:53 28.52332 -82.53616 20238 ft 382 kts 324°
2026-04-19 23:53 28.54629 -82.55145 20794 ft 384 kts 324°
2026-04-19 23:54 28.56944 -82.56685 21317 ft 386 kts 324°
2026-04-19 23:54 28.59272 -82.58236 21834 ft 389 kts 324°
2026-04-19 23:54 28.61612 -82.59801 22327 ft 391 kts 324°
2026-04-19 23:54 28.63968 -82.61380 22820 ft 394 kts 324°
2026-04-19 23:55 28.66340 -82.62970 23301 ft 396 kts 324°
2026-04-19 23:55 28.68690 -82.64548 23746 ft 398 kts 324°
2026-04-19 23:55 28.71083 -82.66155 24133 ft 401 kts 323°
2026-04-19 23:55 28.73489 -82.67772 24531 ft 402 kts 323°
2026-04-19 23:56 28.75903 -82.69396 24929 ft 404 kts 323°
2026-04-19 23:56 28.78330 -82.71026 25352 ft 405 kts 323°
2026-04-19 23:56 28.80762 -82.72659 25734 ft 407 kts 323°
2026-04-19 23:56 28.83205 -82.74301 26130 ft 408 kts 323°
2026-04-19 23:57 28.85659 -82.75951 26516 ft 410 kts 322°
2026-04-19 23:57 28.88120 -82.77609 26886 ft 412 kts 322°
2026-04-19 23:57 28.90592 -82.79276 27262 ft 413 kts 322°
2026-04-19 23:57 28.93067 -82.80947 27633 ft 415 kts 322°
2026-04-19 23:58 28.95561 -82.82633 27996 ft 416 kts 322°
2026-04-19 23:58 28.98025 -82.84299 28346 ft 418 kts 322°
2026-04-19 23:58 29.00528 -82.85989 28694 ft 419 kts 322°
2026-04-19 23:58 29.03047 -82.87691 29030 ft 421 kts 322°
2026-04-19 23:59 29.05566 -82.89396 29370 ft 423 kts 322°
2026-04-19 23:59 29.08075 -82.91174 29746 ft 422 kts 320°
2026-04-19 23:59 29.10503 -82.93060 30095 ft 422 kts 318°
2026-04-19 23:59 29.12883 -82.95028 30387 ft 423 kts 316°
2026-04-20 00:00 29.15243 -82.97033 30747 ft 421 kts 316°
2026-04-20 00:00 29.17589 -82.99025 31180 ft 419 kts 316°
2026-04-20 00:00 29.19940 -83.01002 31583 ft 418 kts 316°
2026-04-20 00:00 29.22286 -83.02949 31984 ft 416 kts 316°
2026-04-20 00:01 29.24636 -83.04879 32384 ft 415 kts 316°
2026-04-20 00:01 29.26984 -83.06795 32782 ft 413 kts 316°
2026-04-20 00:01 29.31653 -83.10594 33564 ft 410 kts 316°
2026-04-20 00:02 29.33944 -83.12465 33948 ft 408 kts 316°
2026-04-20 00:02 29.36252 -83.14353 34299 ft 407 kts 315°
2026-04-20 00:02 29.38547 -83.16234 34702 ft 404 kts 315°
2026-04-20 00:02 29.40827 -83.18104 35060 ft 402 kts 315°
2026-04-20 00:03 29.43096 -83.19965 35395 ft 400 kts 315°
2026-04-20 00:03 29.45351 -83.21824 35724 ft 398 kts 315°
2026-04-20 00:03 29.47592 -83.23677 36034 ft 397 kts 315°
2026-04-20 00:04 29.52058 -83.27375 36113 ft 394 kts 315°
2026-04-20 00:04 29.56508 -83.31040 36119 ft 393 kts 315°
2026-04-20 00:05 29.60960 -83.34703 36119 ft 393 kts 315°
2026-04-20 00:05 29.65398 -83.38375 36121 ft 393 kts 315°
2026-04-20 00:06 29.69800 -83.42026 36134 ft 392 kts 314°
2026-04-20 00:06 29.74227 -83.45694 36138 ft 393 kts 314°
2026-04-20 00:07 29.78667 -83.49376 36157 ft 393 kts 314°
2026-04-20 00:07 29.83111 -83.53056 36163 ft 393 kts 314°
2026-04-20 00:08 29.87558 -83.56743 36176 ft 393 kts 314°
2026-04-20 00:08 29.91981 -83.60427 36179 ft 392 kts 314°
2026-04-20 00:09 29.96381 -83.64104 36220 ft 391 kts 314°
2026-04-20 00:09 30.00767 -83.67761 36165 ft 387 kts 314°
2026-04-20 00:10 30.05102 -83.71378 36156 ft 387 kts 314°
2026-04-20 00:10 30.09470 -83.75024 36157 ft 388 kts 314°
2026-04-20 00:11 30.13850 -83.78680 36165 ft 388 kts 314°
2026-04-20 00:11 30.18228 -83.82341 36174 ft 388 kts 314°
2026-04-20 00:12 30.22596 -83.86010 36170 ft 389 kts 314°
2026-04-20 00:12 30.26981 -83.89686 36192 ft 389 kts 314°
2026-04-20 00:13 30.31343 -83.93352 36189 ft 388 kts 314°
2026-04-20 00:13 30.35711 -83.97037 36186 ft 388 kts 314°
2026-04-20 00:14 30.40079 -84.00722 36186 ft 389 kts 314°
2026-04-20 00:14 30.44449 -84.04402 36186 ft 388 kts 314°
2026-04-20 00:15 30.48788 -84.08062 36186 ft 388 kts 314°
2026-04-20 00:15 30.53147 -84.11751 36189 ft 388 kts 313°
2026-04-20 00:16 30.57506 -84.15449 36189 ft 388 kts 313°
2026-04-20 00:16 30.61865 -84.19142 36194 ft 388 kts 313°
2026-04-20 00:17 30.66218 -84.22833 36195 ft 388 kts 313°
2026-04-20 00:17 30.70574 -84.26529 36194 ft 388 kts 313°
2026-04-20 00:18 30.74927 -84.30230 36194 ft 387 kts 313°
2026-04-20 00:18 30.79274 -84.33930 36195 ft 387 kts 313°
2026-04-20 00:19 30.83618 -84.37628 36221 ft 387 kts 313°
2026-04-20 00:19 30.87946 -84.41322 36194 ft 384 kts 313°
2026-04-20 00:20 30.92227 -84.44985 36190 ft 385 kts 313°
2026-04-20 00:20 30.96543 -84.48679 36208 ft 385 kts 313°
2026-04-20 00:21 31.00864 -84.52376 36211 ft 385 kts 313°
2026-04-20 00:21 31.05187 -84.56076 36212 ft 385 kts 313°
2026-04-20 00:22 31.09509 -84.59781 36215 ft 385 kts 313°
2026-04-20 00:22 31.13828 -84.63492 36267 ft 386 kts 313°
2026-04-20 00:23 31.18135 -84.67194 36225 ft 384 kts 313°
2026-04-20 00:23 31.22436 -84.70891 36236 ft 384 kts 313°
2026-04-20 00:24 31.26727 -84.74598 36243 ft 384 kts 313°
2026-04-20 00:24 31.31020 -84.78310 36251 ft 384 kts 313°
2026-04-20 00:25 31.35317 -84.82024 36257 ft 384 kts 313°
2026-04-20 00:25 31.39583 -84.85715 36256 ft 384 kts 313°
2026-04-20 00:26 31.43877 -84.89432 36258 ft 384 kts 313°
2026-04-20 00:26 31.48169 -84.93145 36252 ft 383 kts 313°
2026-04-20 00:27 31.52460 -84.96868 36249 ft 384 kts 313°
2026-04-20 00:27 31.56754 -85.00605 36251 ft 384 kts 313°
2026-04-20 00:28 31.61080 -85.04316 36252 ft 385 kts 314°
2026-04-20 00:28 31.65444 -85.07969 36257 ft 385 kts 314°
2026-04-20 00:29 31.69799 -85.11625 36260 ft 384 kts 314°
2026-04-20 00:29 31.74132 -85.15288 36238 ft 382 kts 314°
2026-04-20 00:30 31.78412 -85.18915 36233 ft 382 kts 313°
2026-04-20 00:30 31.82730 -85.22577 36237 ft 383 kts 314°
2026-04-20 00:31 31.87053 -85.26247 36250 ft 384 kts 313°
2026-04-20 00:31 31.91388 -85.29933 36259 ft 384 kts 314°
2026-04-20 00:32 31.95718 -85.33620 36248 ft 384 kts 313°
2026-04-20 00:32 32.00053 -85.37316 36268 ft 385 kts 314°
2026-04-20 00:33 32.04384 -85.41005 36247 ft 384 kts 314°
2026-04-20 00:33 32.08680 -85.44679 36251 ft 384 kts 314°
2026-04-20 00:34 32.13008 -85.48384 36257 ft 384 kts 314°
2026-04-20 00:34 32.17341 -85.52095 36258 ft 385 kts 314°
2026-04-20 00:35 32.21676 -85.55809 36105 ft 385 kts 314°
2026-04-20 00:35 32.23840 -85.57663 35858 ft 384 kts 314°
2026-04-20 00:35 32.25999 -85.59515 35614 ft 384 kts 314°
2026-04-20 00:35 32.28159 -85.61373 35436 ft 384 kts 314°
2026-04-20 00:36 32.30317 -85.63229 35196 ft 383 kts 314°
2026-04-20 00:36 32.32474 -85.65086 34959 ft 384 kts 314°
2026-04-20 00:36 32.34633 -85.66946 34724 ft 384 kts 314°
2026-04-20 00:36 32.36791 -85.68805 34492 ft 384 kts 314°
2026-04-20 00:37 32.38955 -85.70666 34263 ft 385 kts 314°
2026-04-20 00:37 32.41121 -85.72531 33999 ft 385 kts 314°
2026-04-20 00:37 32.43290 -85.74400 33722 ft 386 kts 314°
2026-04-20 00:37 32.45433 -85.76250 33467 ft 387 kts 314°
2026-04-20 00:38 32.47610 -85.78131 33202 ft 388 kts 314°
2026-04-20 00:38 32.49789 -85.80017 32939 ft 388 kts 314°
2026-04-20 00:38 32.51975 -85.81908 32663 ft 389 kts 314°
2026-04-20 00:38 32.54166 -85.83805 32434 ft 390 kts 314°
2026-04-20 00:39 32.56358 -85.85705 32222 ft 389 kts 314°
2026-04-20 00:39 32.58548 -85.87605 31965 ft 388 kts 314°
2026-04-20 00:39 32.60727 -85.89495 31725 ft 387 kts 314°
2026-04-20 00:39 32.62900 -85.91380 31479 ft 386 kts 314°
2026-04-20 00:40 32.65065 -85.93259 31237 ft 385 kts 314°
2026-04-20 00:40 32.67224 -85.95132 30998 ft 384 kts 314°
2026-04-20 00:40 32.69354 -85.96976 30762 ft 383 kts 314°
2026-04-20 00:40 32.71531 -85.98865 30523 ft 382 kts 314°
2026-04-20 00:41 32.73646 -86.00706 30281 ft 381 kts 314°
2026-04-20 00:41 32.75779 -86.02561 30002 ft 380 kts 315°
2026-04-20 00:41 32.77909 -86.04416 29725 ft 379 kts 315°
2026-04-20 00:41 32.80031 -86.06266 29297 ft 378 kts 315°
2026-04-20 00:42 32.82184 -86.08151 28286 ft 385 kts 315°
2026-04-20 00:42 32.84305 -86.09993 28179 ft 372 kts 316°
2026-04-20 00:42 32.86364 -86.11780 27909 ft 362 kts 315°
2026-04-20 00:42 32.88368 -86.13525 27646 ft 352 kts 315°
2026-04-20 00:43 32.90319 -86.15226 27395 ft 344 kts 315°
2026-04-20 00:43 32.91592 -86.16338 27231 ft 340 kts 315°
2026-04-20 00:43 32.93474 -86.17986 26977 ft 332 kts 315°
2026-04-20 00:43 32.95319 -86.19603 26722 ft 326 kts 315°
2026-04-20 00:44 32.97131 -86.21196 26473 ft 323 kts 315°
2026-04-20 00:44 32.98936 -86.22781 26223 ft 322 kts 315°
2026-04-20 00:44 33.00737 -86.24362 25986 ft 321 kts 315°
2026-04-20 00:44 33.02531 -86.25940 25750 ft 320 kts 315°
2026-04-20 00:45 33.04321 -86.27517 25239 ft 324 kts 316°
2026-04-20 00:45 33.06181 -86.29175 24112 ft 345 kts 316°
2026-04-20 00:45 33.08154 -86.30933 22949 ft 361 kts 317°
2026-04-20 00:45 33.10204 -86.32746 21769 ft 374 kts 318°
2026-04-20 00:46 33.12333 -86.34615 20579 ft 386 kts 319°
2026-04-20 00:46 33.14413 -86.36682 19346 ft 392 kts 310°
2026-04-20 00:46 33.16028 -86.39298 18337 ft 392 kts 297°
2026-04-20 00:46 33.17041 -86.42306 17395 ft 391 kts 285°
2026-04-20 00:47 33.17444 -86.45471 16535 ft 390 kts 277°
2026-04-20 00:47 33.17713 -86.48733 15714 ft 389 kts 277°
2026-04-20 00:47 33.17977 -86.51933 14974 ft 387 kts 277°
2026-04-20 00:47 33.18239 -86.55123 14268 ft 385 kts 277°
2026-04-20 00:48 33.18496 -86.58257 13569 ft 383 kts 277°
2026-04-20 00:48 33.18752 -86.61407 12868 ft 380 kts 277°
2026-04-20 00:48 33.19004 -86.64531 12163 ft 377 kts 277°
2026-04-20 00:48 33.19255 -86.67627 11480 ft 373 kts 277°
2026-04-20 00:49 33.19501 -86.70680 11097 ft 362 kts 277°
2026-04-20 00:49 33.19733 -86.73592 10967 ft 343 kts 278°
2026-04-20 00:49 33.19952 -86.76334 10990 ft 321 kts 278°
2026-04-20 00:49 33.20160 -86.78924 10992 ft 308 kts 278°
2026-04-20 00:50 33.20367 -86.81461 10993 ft 306 kts 278°
2026-04-20 00:50 33.20572 -86.83987 10993 ft 306 kts 278°
2026-04-20 00:50 33.20776 -86.86517 10992 ft 306 kts 278°
2026-04-20 00:50 33.20979 -86.89046 10992 ft 306 kts 278°
2026-04-20 00:51 33.21182 -86.91576 11001 ft 306 kts 278°
2026-04-20 00:51 33.21385 -86.94104 11001 ft 306 kts 278°
2026-04-20 00:51 33.21587 -86.96632 10796 ft 305 kts 278°
2026-04-20 00:51 33.21786 -86.99155 10556 ft 304 kts 278°
2026-04-20 00:52 33.21984 -87.01663 10319 ft 303 kts 278°
2026-04-20 00:52 33.22182 -87.04163 10072 ft 302 kts 278°
2026-04-20 00:52 33.22374 -87.06633 9871 ft 293 kts 278°
2026-04-20 00:52 33.22553 -87.09007 9736 ft 281 kts 278°
2026-04-20 00:53 33.22724 -87.11280 9601 ft 270 kts 278°
2026-04-20 00:53 33.23116 -87.13431 9467 ft 263 kts 295°
2026-04-20 00:53 33.24118 -87.15234 9336 ft 262 kts 315°
2026-04-20 00:53 33.25583 -87.16462 9208 ft 263 kts 334°
2026-04-20 00:54 33.27362 -87.16978 9083 ft 267 kts 355°
2026-04-20 00:54 33.29232 -87.16649 8951 ft 274 kts 16°
2026-04-20 00:54 33.30854 -87.15485 8827 ft 282 kts 38°
2026-04-20 00:54 33.32191 -87.13749 8707 ft 285 kts 44°
2026-04-20 00:55 33.33502 -87.11980 8583 ft 283 kts 44°
2026-04-20 00:55 33.34784 -87.10243 8448 ft 272 kts 44°
2026-04-20 00:55 33.36025 -87.08565 7819 ft 268 kts 44°
2026-04-20 00:55 33.37244 -87.06920 7289 ft 260 kts 44°
2026-04-20 00:56 33.38425 -87.05326 6812 ft 251 kts 44°
2026-04-20 00:56 33.39568 -87.03785 6113 ft 250 kts 44°
2026-04-20 00:56 33.40758 -87.02191 4983 ft 264 kts 45°
2026-04-20 00:56 33.41992 -87.00490 3797 ft 275 kts 50°
2026-04-20 00:57 33.43097 -86.98669 3258 ft 262 kts 52°
2026-04-20 00:57 33.44087 -86.96952 3085 ft 237 kts 52°
2026-04-20 00:57 33.44969 -86.95397 2989 ft 217 kts 52°
2026-04-20 00:57 33.45796 -86.93945 3033 ft 205 kts 52°
2026-04-20 00:58 33.46583 -86.92566 3014 ft 190 kts 52°
2026-04-20 00:58 33.47264 -86.91375 3023 ft 163 kts 51°
2026-04-20 00:58 33.47879 -86.90310 2903 ft 148 kts 50°
2026-04-20 00:58 33.48462 -86.89304 2512 ft 146 kts 51°
2026-04-20 00:59 33.49040 -86.88307 2095 ft 146 kts 50°
2026-04-20 00:59 33.49617 -86.87310 1721 ft 146 kts 51°
2026-04-20 00:59 33.50192 -86.86316 1715 ft 147 kts 51°
2026-04-20 00:59 33.50778 -86.85303 1715 ft 148 kts 52°
2026-04-20 01:00 33.51364 -86.84287 1707 ft 148 kts 51°
2026-04-20 01:00 33.51933 -86.83301 1725 ft 140 kts 51°
2026-04-20 01:00 33.52477 -86.82358 1710 ft 137 kts 51°
2026-04-20 01:00 33.53021 -86.81417 1515 ft 137 kts 52°
2026-04-20 01:01 33.53567 -86.80471 1330 ft 139 kts 53°
2026-04-20 01:01 33.54116 -86.79520 1143 ft 139 kts 53°
2026-04-20 01:01 33.54662 -86.78572 950 ft 137 kts 52°
2026-04-20 01:01 33.55203 -86.77635 753 ft 137 kts 55°
2026-04-20 01:02 33.55741 -86.76703 614 ft 127 kts 54°
2026-04-20 01:02 33.56052 -86.76152 621 ft 54 kts 54°
2026-04-20 01:02 33.56203 -86.75873 625 ft 17 kts 77°
2026-04-20 01:02 33.56175 -86.75849 631 ft 5 kts 203°
2026-04-20 01:03 33.56128 -86.75879 622 ft 10 kts 207°
2026-04-20 01:03 33.56095 -86.75900 623 ft 0 kts 209°